Riverside, CA

8:04 AM PST on January 16, 2017 (GMT -0800)
Riverside Municipal

Weather History for KRAL - March, 2014

Change the Weather History Date:

Thursday, March 27, 2014

  Actual Average Record
Temperature  
Mean Temperature 58 °F 60 °F  
Max Temperature 68 °F 72 °F 94 °F (2015)
Min Temperature 47 °F 48 °F 29 °F (1920)
Degree Days  
Heating Degree Days 7 5  
Month to date heating degree days 63 184  
Since 1 July heating degree days 725 1292  
Cooling Degree Days 0 0  
Month to date cooling degree days 30 4  
Year to date cooling degree days 59 13  
Growing Degree Days 7 (Base 50)    
Moisture  
Dew Point 44 °F    
Average Humidity 63    
Maximum Humidity 86    
Minimum Humidity 40    
Precipitation  
Precipitation 0.00 in 0.03 in 1.44 in (1991)
Month to date precipitation 0.26 1.91  
Year to date precipitation 1.36 7.89  
Since 1 July precipitation 2.51  
Snow  
Snow 0.00 in - - ()
Month to date snowfall 0.0  
Year to date snowfall 0.0  
Snow Depth 0.00 in    
Sea Level Pressure  
Sea Level Pressure 29.99 in    
Wind  
Wind Speed 4 mph (WNW)    
Max Wind Speed 18 mph    
Max Gust Speed 23 mph    
Visibility 10 miles    
Events      
T = Trace of Precipitation, MM = Missing Value Source: NWS Daily Summary

Daily Weather History Graph

Daily Weather History Graph

Search for Another Location

Airport or City:

Trip Planner

Search our weather history database for the weather conditions in past years. The results will help you decide how hot, cold, wet, or windy it might be!

Date:

Astronomy

Mar. 27, 2014 Rise Set
Actual Time 6:43 AM PDT 7:06 PM PDT
Civil Twilight 6:18 AM PDT 7:31 PM PDT
Nautical Twilight 5:49 AM PDT 8:01 PM PDT
Astronomical Twilight 5:19 AM PDT 8:31 PM PDT
Moon 4:29 AM PDT (3/27) 4:07 PM PDT (3/27)
Length of Visible Light 13h 13m
Length of Day
12h 23m
Waning Crescent, 12% of the Moon is Illuminated
Mar 27
Waning Crescent
Mar 30
New
Apr 7
First Quarter
Apr 15
Full
Apr 22
Last Quarter

Hourly Weather History & Observations

Time (PDT) Temp. Dew Point Humidity Pressure Visibility Wind Dir Wind Speed Gust Speed Precip Events Conditions
12:53 AM 53.1 °F 48.0 °F 83% 29.95 in 10.0 mi West 8.1 mph - N/A   Scattered Clouds
1:53 AM 53.1 °F 48.9 °F 86% 29.95 in 10.0 mi Calm Calm - N/A   Overcast
2:34 AM 54.0 °F 48.9 °F 83% 29.98 in 10.0 mi Calm Calm - N/A   Overcast
2:50 AM 51.8 °F 48.2 °F 88% 29.98 in 10.0 mi Variable 3.5 mph - N/A   Mostly Cloudy
2:53 AM 53.1 °F 48.0 °F 83% 29.95 in 10.0 mi Calm Calm - N/A   Mostly Cloudy
3:53 AM 52.0 °F 46.9 °F 83% 29.94 in 10.0 mi Calm Calm - N/A   Clear
4:53 AM 50.0 °F 46.0 °F 86% 29.95 in 10.0 mi Calm Calm - N/A   Partly Cloudy
5:53 AM 48.9 °F 45.0 °F 86% 29.96 in 10.0 mi Calm Calm - N/A   Clear
6:53 AM 48.0 °F 44.1 °F 86% 29.96 in 10.0 mi Calm Calm - N/A   Partly Cloudy
7:53 AM 51.1 °F 46.9 °F 86% 29.98 in 10.0 mi NNE 4.6 mph - N/A   Partly Cloudy
8:53 AM 55.9 °F 46.9 °F 72% 30.01 in 10.0 mi ENE 3.5 mph - N/A   Partly Cloudy
9:53 AM 57.9 °F 45.0 °F 62% 30.01 in 10.0 mi SSE 4.6 mph - N/A   Mostly Cloudy
10:53 AM 60.1 °F 43.0 °F 53% 30.02 in 10.0 mi Calm Calm - N/A   Mostly Cloudy
11:00 AM 60.1 °F 42.1 °F 51% 30.05 in 10.0 mi Calm Calm - N/A   Mostly Cloudy
11:53 AM 61.0 °F 39.9 °F 46% 30.02 in 10.0 mi Calm Calm - N/A   Mostly Cloudy
12:53 PM 64.9 °F 39.9 °F 40% 30.02 in 10.0 mi WSW 6.9 mph - N/A   Mostly Cloudy
1:53 PM 64.9 °F 41.0 °F 42% 30.00 in 10.0 mi West 9.2 mph - N/A   Overcast
2:53 PM 66.9 °F 41.0 °F 39% 29.99 in 10.0 mi West 11.5 mph - N/A   Scattered Clouds
3:53 PM 64.9 °F 39.9 °F 40% 29.97 in 10.0 mi West 9.2 mph 19.6 mph N/A   Scattered Clouds
4:53 PM 66.9 °F 41.0 °F 39% 29.97 in 10.0 mi WNW 10.4 mph - N/A   Scattered Clouds
5:53 PM 63.0 °F 42.1 °F 46% 29.98 in 10.0 mi WNW 8.1 mph - N/A   Overcast
6:53 PM 61.0 °F 42.1 °F 50% 29.99 in 10.0 mi WNW 9.2 mph - N/A   Overcast
7:53 PM 59.0 °F 42.1 °F 53% 30.00 in 10.0 mi West 6.9 mph - N/A   Overcast
8:53 PM 57.0 °F 42.1 °F 57% 30.02 in 10.0 mi Calm Calm - N/A   Clear
9:53 PM 55.9 °F 44.1 °F 64% 30.05 in 10.0 mi Calm Calm - N/A   Clear
10:53 PM 55.9 °F 45.0 °F 67% 30.07 in 10.0 mi Calm Calm - N/A   Scattered Clouds
11:53 PM 53.1 °F 44.1 °F 71% 30.07 in 10.0 mi ENE 3.5 mph - N/A   Clear